Regional Weather Roundup
Issued by NWS

Home | Current Version | Previous Version | Graphics & Text | Print | Product List | Glossary Off
Versions: 1 2 3 4 5 6 7 8 9 10 11 12 13 14 15 16 17 18 19 20 21 22 23 24 25 26 27 28 29 30 31 32 33 34 35 36 37 38 39 40 41 42 43 44 45 46 47 48 49 50

000
ASUS43 KMKX 230900
RWRWI

WISCONSIN REGIONAL WEATHER ROUNDUP
NATIONAL WEATHER SERVICE MILWAUKEE/SULLIVAN WI
400 AM CDT SUN JUL 23 2017

NOTE: "FAIR" INDICATES FEW OR NO CLOUDS BELOW 12,000 FEET WITH NO
SIGNIFICANT WEATHER AND/OR OBSTRUCTIONS TO VISIBILITY.

WIZ001-002-006>008-014>016-023>028-231000-
NORTHWEST WISCONSIN

CITY           SKY/WX    TMP DP  RH WIND       PRES   REMARKS
SUPERIOR ARPT  NOT AVBL
ASHLAND        CLOUDY    58  58 100 NW6       29.82R FOG
HAYWARD        CLOUDY    60  58  92 CALM      29.83R
SIREN          CLOUDY    63  56  79 CALM      29.83S
CUMBERLAND     CLOUDY    63  54  72 NW7       29.83S
RICE LAKE      MOCLDY    62  57  85 CALM      29.83F
CHETEK         CLOUDY    64  59  86 CALM      29.82S
LADYSMITH      PTCLDY    64  59  83 CALM      29.83S
EAU CLAIRE     NOT AVBL
MENOMONIE      CLEAR     65  61  85 W3        29.82S
NEW RICHMOND   MOCLDY    63  60  90 NW6       29.83S
OSCEOLA        CLOUDY    64  64 100 CALM      29.85S
$$

WIZ003>005-009-010-017-018-231000-
NORTH CENTRAL WISCONSIN

CITY           SKY/WX    TMP DP  RH WIND       PRES   REMARKS
MANITOWISH WTR FOG       61  61 100 W5        29.81R VSB 1/2
ARBOR VITAE    CLOUDY    62  61  96 CALM      29.79S FOG
WOODRUFF       CLOUDY    62  61  96 CALM      29.79S FOG
RHINELANDER    FOG       57  57 100 W3        29.80S VSB 1/4
EAGLE RIVER    FOG       57  57 100 W3        29.78F VSB<1/4
LAND O LAKES   FOG       61  61 100 CALM      29.80F VSB<1/4
PHILLIPS       CLOUDY    60  60 100 SW3       29.80S
TOMAHAWK       FOG       56  55  97 CALM      29.80F VSB 1/4
MEDFORD        MOCLDY    60  60  99 CALM      29.81R FOG
MERRILL        CLEAR     60  60 100 CALM      29.80S
$$

WIZ029-030-035-036-043>047-231000-
CENTRAL WISCONSIN

CITY           SKY/WX    TMP DP  RH WIND       PRES   REMARKS
WAUSAU         CLEAR     65  64  97 NW5       29.77F
MOSINEE        CLEAR     64  63  94 NW3       29.80S
MARSHFIELD     CLEAR     64  61  90 NW7       29.80S
STEVENS POINT    N/A     63  63 100 CALM      29.80S FOG
WAUPACA        CLEAR     71  70  96 W6        29.78S
WAUTOMA        CLEAR     68  66  93 W5        29.79S
WISC RAPIDS    FOG       63  63 100 CALM      29.80S VSB 1/2
CAMP DOUGLAS   CLEAR     63  63 100 CALM      29.79F FOG
$$

WIZ011>013-019>022-031-037>040-048>050-231000-
NORTHEAST WISCONSIN

CITY           SKY/WX    TMP DP  RH WIND       PRES   REMARKS
ANTIGO         CLEAR     59  59 100 CALM      29.80S FOG
SHAWANO        FOG       69  67  94 W3        29.76F VSB 1/2
OCONTO         CLOUDY    65  64  99 CALM      29.75S
STURGEON BAY     N/A     64  62  93 S5        29.76R
GREEN BAY      CLEAR     66  66 100 SW3       29.75F
MANITOWOC      NOT AVBL
APPLETON       CLEAR     68  68 100 SW7       29.76S
CLINTONVILLE   FOG       68  68 100 CALM      29.77S VSB 3/4
OSHKOSH        CLEAR     70  69  97 CALM      29.77S
$$

WIZ032>034-041-042-053>061-231000-
SOUTHWEST WISCONSIN

CITY           SKY/WX    TMP DP  RH WIND       PRES   REMARKS
LA CROSSE      FOG       70  69  97 CALM      29.79F VSB 1/4
SPARTA         CLEAR     59  59 100 CALM      29.82S
VIROQUA        CLEAR     66  66 100 CALM      29.83F
BOSCOBEL       FOG       67  66  97 CALM      29.81S VSB 1/4
PRAIRIE DU CHI CLEAR     68  66  94 CALM      29.81S
PLATTEVILLE    CLEAR     70  70 100 NW5       29.83S
$$

WIZ056-057-062-063-064-067-068-231000-
SOUTH CENTRAL WISCONSIN

CITY           SKY/WX    TMP DP  RH WIND       PRES   REMARKS
REEDSBURG      CLEAR     67  67 100 W3        29.80F
BARABOO/DELLS  CLEAR     68  65  92 W3        29.81S
LONE ROCK      PTCLDY    70  68  94 W5        29.80F FOG
MINERAL POINT  CLEAR     70  70 100 NW3       29.82F FOG
MADISON        MOCLDY    70  69  97 NW3       29.79S
MIDDLETON      MOCLDY    70  70 100 CALM      29.80F
WATERTOWN      CLOUDY    68  68 100 CALM      29.78F
MONROE         CLEAR     72  70  94 W6        29.81S
JANESVILLE     PTCLDY    70  70 100 CALM      29.78S
$$

WIZ051-052-058>065-066-070>072-231000-
SOUTHEAST WISCONSIN

CITY           SKY/WX    TMP DP  RH WIND       PRES   REMARKS
MILWAUKEE      CLOUDY    73  71  93 SW3       29.77F
WAUKESHA       MOCLDY    68  66  94 CALM      29.79F
MILWAUKEE/TIMM CLOUDY    68  64  88 CALM      29.78F
RACINE         CLOUDY    69  69 100 SW5       29.79F FOG
KENOSHA        PTCLDY    69  68  96 SW3       29.78F
FOND DU LAC    PTCLDY    71  67  87 NW6       29.77S
SHEBOYGAN      MOCLDY    67  67 100 S6        29.77F
WEST BEND      CLOUDY    68  66  94 SE3       29.78F
JUNEAU         CLOUDY    70  68  95 CALM      29.79S
$$

LSZ147-162-231000-
LAKE SUPERIOR

STATION/POSITION TIME  TEMP    WIND        PRES    WAVE
                       AIR SEA DIR/SP/G            HT/PER
                 (UTC) (F)     (DEG/KT/KT) (MB)    (FT/S)
W MID LAKE BUOY  0750   49 48   10/  6/  8 1009.2F   2/ 4
DEVILS ISLAND    0800   55      10/  4/  5 1009.9F
SAXON HARBOR     0830   59     360/  5/  8 1009.1S
$$

LMZ867-665-643>646-231000-
LAKE MICHIGAN

STATION/POSITION TIME  TEMP    WIND        PRES    WAVE
                       AIR SEA DIR/SP/G            HT/PER
                 (UTC) (F)     (DEG/KT/KT) (MB)    (FT/S)
CHAMBERS ISLAND  0840   68     240/  2/  7 1006.8S
S GREEN BAY BUOY 0830   69 72  180/ 12/ 14 1007.3F
N MID LAKE BUOY  0750   68 68  210/  4/  4 1007.5F   0
NORTHPORT PIER   0840   65        CALM     1007.5R
KEWAUNEE LAKESHO 0830   66     280/  2/  3 1006.8F
SHEBOYGAN LAKESH 0800   67      90/ 11/ 11 1007.8F
PORT WASHINGTON  0840   69      80/  8/ 12 1009.1F
ATWATER BUOY     0739   70 68  170/  6/  6 1008.7F
MILWAUKEE LAKESH 0830   72     240/  7/  8   N/A
S MID LAKE BUOY  0750   70 70   CALM  /  2 1008.8F   0
KENOSHA   LAKESH 0800   72     220/  2/  5 1008.5
$$

TC  - TEMPERATURE IN CELSIUS
VSB - VISIBILITY IN STATUTE MILES
WCI - WIND CHILL INDEX
HX  - HEAT INDEX





USA.gov is the U.S. government's official web portal to all federal, state and local government web resources and services.